Terug naar catalogus

COSMOS 839 DEB

ActiefUNKNOWN
NORAD 10447·DEBRIS·🇷🇺 Russia

Gelanceerd Jul 8, 1976 vanaf Plesetsk Cosmodrome

Loading…

Volgende Passages (komende 24 uur)

TLE

VersSource: Space-Track

Epoch: Sep 14, 2026, 08:07 UTC

1 10447U 76067Y   26257.33828392 -.00000069  00000-0 -44644-4 0  9995
2 10447  65.8601 220.0126 0710918 189.4800 326.5033 12.37060192265267

Volg COSMOS 839 DEB in realtime met AllMySat

Download on the App Store